Home   Weather   Southend-on-Sea   Past weeks

Flag for United Kingdom Past Weather in Southend-on-Sea, England, United Kingdom — Yesterday and Last 2 Weeks

Now
68 °F

Sunny.


Feels Like: 68 °F
Forecast: 51 / 65 °F
Wind: 16 mph from West

Location: Southend Airport-On-Sea

Current Time: Sep 25, 2016 at 4:44:24 PM

Latest Report: Sep 25, 2016 at 4:20 PM


Visibility: 10 mi

Pressure: 30.01 "Hg

Humidity: 38%

Dew Point: 41 °F

Location of Southend-on-SeaLocation

Past Weather in Southend-on-Sea — Graph

°F

Southend-on-Sea Temperature Yesterday

Maximum temperature yesterday: 73 °F (at 12:20 PM)
Minimum temperature yesterday: 50 °F (at 3:50 AM)
Average temperature yesterday: 66 °F

High & Low Weather Summary for the Past Weeks

 TemperatureHumidityPressure
High86 °F (Sep 13, 1:20 PM)94% (Sep 11, 5:20 AM)30.30 "Hg (Sep 11, 5:20 AM)
Low46 °F (Sep 23, 6:20 AM)33% (Sep 11, 12:50 PM)29.77 "Hg (Sep 14, 4:20 AM)
Average65 °F71%30.00 "Hg
* Reported Sep 10 3:20 PM — Sep 25 3:20 PM, Southend-on-Sea, Weather by CustomWeather, © 2016

Note: Actual official high and low records may vary slightly from our data, if they occured in-between our weather recording intervals... More about our weather records

Advertising

Southend-on-Sea Weather History for the Previous 24 Hours

Scroll right to see more
 ConditionsComfort  
Time TempWeatherWind HumidityBarometerVisibility
3:20 PM
Sun, Sep 25
68 °FSunny.20 mph38%30.01 "Hg10 mi
2:50 PM68 °FPassing clouds.20 mph40%29.98 "HgN/A
2:20 PM68 °FPassing clouds.21 mph43%29.98 "HgN/A
1:50 PM68 °FPassing clouds.21 mph49%29.98 "HgN/A
1:20 PM64 °FPassing clouds.18 mph56%29.95 "HgN/A
12:50 PM64 °FScattered clouds.16 mph60%29.95 "HgN/A
12:20 PM63 °FPassing clouds.14 mph64%29.95 "HgN/A
11:50 AM63 °FPassing clouds.16 mph64%29.92 "HgN/A
11:20 AM64 °FPassing clouds.16 mph68%29.92 "HgN/A
10:50 AM63 °FPassing clouds.16 mph73%29.92 "HgN/A
10:20 AM63 °FPassing clouds.15 mph73%29.92 "HgN/A
9:50 AM63 °FPassing clouds.14 mph77%29.89 "HgN/A
9:20 AM63 °FPassing clouds.17 mph77%29.89 "HgN/A
8:50 AM64 °FPassing clouds.15 mph78%29.86 "HgN/A
8:20 AM64 °FSprinkles. Scattered clouds.9 mph78%29.86 "HgN/A
7:50 AM64 °FPassing clouds.12 mph73%29.86 "HgN/A
7:20 AM64 °FScattered clouds.12 mph78%29.83 "HgN/A
6:50 AM64 °FSunny.13 mph73%29.83 "Hg10 mi
6:20 AM63 °FClear.12 mph77%29.80 "Hg10 mi
5:50 AM64 °FClear.8 mph73%29.80 "Hg10 mi
5:20 AM64 °FClear.13 mph73%29.80 "Hg10 mi
4:50 AM64 °FClear.14 mph68%29.80 "Hg10 mi
3:50 AM64 °FClear.13 mph68%29.83 "Hg10 mi
2:50 AM64 °FClear.10 mph64%29.83 "Hg10 mi
12:50 AM66 °FClear.13 mph56%29.89 "Hg10 mi
11:50 PM
Sat, Sep 24
68 °FClear.13 mph56%29.89 "Hg10 mi
11:20 PM66 °FClear.13 mph60%29.89 "Hg10 mi
10:50 PM66 °FClear.12 mph60%29.92 "Hg10 mi
10:20 PM66 °FClear.12 mph60%29.92 "Hg10 mi
9:50 PM66 °FClear.12 mph60%29.95 "Hg10 mi
9:20 PM68 °FClear.12 mph56%29.95 "Hg10 mi
8:50 PM68 °FClear.10 mph56%29.95 "Hg10 mi
8:20 PM68 °FClear.10 mph56%29.95 "Hg10 mi
7:50 PM68 °FClear.6 mph60%29.95 "Hg10 mi
7:20 PM66 °FClear.6 mph60%29.98 "Hg10 mi
6:50 PM68 °FClear.8 mph60%29.98 "Hg10 mi
6:20 PM68 °FSunny.9 mph60%29.98 "Hg10 mi
5:50 PM70 °FSunny.10 mph57%29.98 "Hg10 mi
5:20 PM70 °FSunny.10 mph57%29.98 "Hg10 mi
4:50 PM70 °FSunny.15 mph57%30.01 "Hg10 mi
4:20 PM72 °FSunny.16 mph47%30.01 "Hg10 mi
Weather by CustomWeather, © 2016

See weather overviewHow to use our weather pages